TimeEDT,TemperatureF,Dew PointF,Humidity,Sea Level PressureIn,VisibilityMPH,Wind Direction,Wind SpeedMPH,Gust SpeedMPH,PrecipitationIn,Events,Conditions,WindDirDegrees,DateUTC
12:15 AM,65.3,59.9,83,30.07,10.0,WNW,3.5,-,N/A,,Clear,300,2013-07-09 04:15:00
12:35 AM,65.8,59.4,80,30.07,10.0,Calm,Calm,-,N/A,,Clear,0,2013-07-09 04:35:00
12:55 AM,64.0,59.2,84,30.07,10.0,Calm,Calm,-,N/A,,Clear,0,2013-07-09 04:55:00
1:15 AM,63.7,59.7,87,30.07,10.0,Calm,Calm,-,N/A,,Scattered Clouds,0,2013-07-09 05:15:00
1:35 AM,63.1,59.9,89,30.08,10.0,West,3.5,-,N/A,,Overcast,270,2013-07-09 05:35:00
1:55 AM,63.5,60.3,89,30.08,10.0,SW,3.5,-,N/A,,Mostly Cloudy,220,2013-07-09 05:55:00
2:15 AM,62.8,59.9,90,30.08,7.0,Calm,Calm,-,N/A,,Scattered Clouds,0,2013-07-09 06:15:00
2:35 AM,62.4,59.4,90,30.07,7.0,Calm,Calm,-,N/A,,Mostly Cloudy,0,2013-07-09 06:35:00
2:55 AM,62.2,59.5,91,30.08,7.0,Calm,Calm,-,N/A,,Scattered Clouds,0,2013-07-09 06:55:00
3:15 AM,62.2,59.5,91,30.07,5.0,SW,4.6,-,N/A,,Scattered Clouds,230,2013-07-09 07:15:00
3:35 AM,62.4,59.9,91,30.08,4.0,WSW,3.5,-,N/A,,Overcast,240,2013-07-09 07:35:00
3:55 AM,63.0,60.4,91,30.07,7.0,Calm,Calm,-,N/A,,Overcast,0,2013-07-09 07:55:00
4:15 AM,63.7,61.0,91,30.07,5.0,Calm,Calm,-,N/A,,Overcast,0,2013-07-09 08:15:00
4:35 AM,63.7,61.0,91,30.07,5.0,Calm,Calm,-,N/A,,Overcast,0,2013-07-09 08:35:00
4:55 AM,63.1,60.4,91,30.07,7.0,WSW,3.5,-,N/A,,Overcast,240,2013-07-09 08:55:00
5:15 AM,62.8,60.1,91,30.08,7.0,SW,4.6,-,N/A,,Overcast,220,2013-07-09 09:15:00
5:35 AM,62.8,60.1,91,30.09,4.0,WSW,3.5,-,N/A,,Overcast,250,2013-07-09 09:35:00
5:55 AM,63.0,60.4,91,30.09,5.0,SW,4.6,-,N/A,,Overcast,220,2013-07-09 09:55:00
6:15 AM,63.5,60.8,91,30.09,7.0,SSE,3.5,-,N/A,,Mostly Cloudy,150,2013-07-09 10:15:00
6:35 AM,64.4,61.0,89,30.09,7.0,Calm,Calm,-,N/A,,Mostly Cloudy,0,2013-07-09 10:35:00
6:55 AM,64.0,60.8,89,30.10,7.0,Calm,Calm,-,N/A,,Mostly Cloudy,0,2013-07-09 10:55:00
7:15 AM,65.3,61.9,89,30.10,7.0,Calm,Calm,-,N/A,,Mostly Cloudy,0,2013-07-09 11:15:00
7:35 AM,65.8,62.1,88,30.10,7.0,SSW,4.6,-,N/A,,Mostly Cloudy,200,2013-07-09 11:35:00
7:55 AM,68.2,64.0,87,30.10,10.0,SSW,4.6,-,N/A,,Scattered Clouds,200,2013-07-09 11:55:00
8:15 AM,69.8,64.4,83,30.10,10.0,South,3.5,-,N/A,,Clear,190,2013-07-09 12:15:00
8:35 AM,71.2,64.8,80,30.10,10.0,SSW,5.8,-,N/A,,Clear,200,2013-07-09 12:35:00
8:55 AM,72.3,65.8,80,30.10,10.0,South,5.8,-,N/A,,Clear,190,2013-07-09 12:55:00
9:15 AM,72.9,65.5,78,30.10,10.0,SSW,8.1,-,N/A,,Scattered Clouds,200,2013-07-09 13:15:00
9:35 AM,73.4,65.8,77,30.10,10.0,South,6.9,-,N/A,,Scattered Clouds,190,2013-07-09 13:35:00
9:55 AM,75.0,66.0,73,30.10,10.0,SSW,10.4,-,N/A,,Mostly Cloudy,210,2013-07-09 13:55:00
10:15 AM,75.4,66.2,73,30.10,10.0,South,5.8,-,N/A,,Scattered Clouds,180,2013-07-09 14:15:00
10:35 AM,75.4,65.5,71,30.10,10.0,South,6.9,-,N/A,,Scattered Clouds,190,2013-07-09 14:35:00
10:55 AM,76.5,65.7,69,30.10,10.0,SSW,6.9,-,N/A,,Scattered Clouds,200,2013-07-09 14:55:00
11:15 AM,77.0,66.0,69,30.09,10.0,South,3.5,-,N/A,,Scattered Clouds,190,2013-07-09 15:15:00
11:35 AM,77.0,65.7,68,30.08,10.0,SSE,6.9,-,N/A,,Scattered Clouds,150,2013-07-09 15:35:00
11:55 AM,78.1,64.6,63,30.08,10.0,South,5.8,-,N/A,,Mostly Cloudy,170,2013-07-09 15:55:00
12:15 PM,76.6,64.9,67,30.08,7.0,SW,4.6,-,N/A,Rain,Rain,220,2013-07-09 16:15:00
12:35 PM,74.1,67.3,79,30.08,7.0,North,3.5,-,N/A,Rain,Light Rain,350,2013-07-09 16:35:00
12:55 PM,73.4,66.4,79,30.07,5.0,Calm,Calm,-,N/A,Rain,Light Rain,0,2013-07-09 16:55:00
1:15 PM,73.2,66.9,81,30.06,10.0,South,3.5,-,N/A,Rain,Light Rain,190,2013-07-09 17:15:00
1:35 PM,76.6,67.1,72,30.06,10.0,ESE,8.1,-,N/A,,Scattered Clouds,120,2013-07-09 17:35:00
1:55 PM,78.1,67.1,69,30.05,10.0,ESE,4.6,-,N/A,,Clear,120,2013-07-09 17:55:00
2:15 PM,78.8,66.2,65,30.05,10.0,SE,5.8,-,N/A,,Clear,130,2013-07-09 18:15:00
2:35 PM,79.0,66.6,66,30.05,10.0,Calm,Calm,-,N/A,,Clear,0,2013-07-09 18:35:00
2:55 PM,80.8,64.6,58,30.04,10.0,Calm,Calm,-,N/A,,Clear,0,2013-07-09 18:55:00
3:15 PM,81.7,66.0,59,30.03,10.0,SE,4.6,-,N/A,,Clear,140,2013-07-09 19:15:00
3:35 PM,81.9,65.5,57,30.03,10.0,SSE,3.5,-,N/A,,Clear,160,2013-07-09 19:35:00
3:55 PM,81.5,65.5,58,30.03,10.0,South,4.6,-,N/A,,Scattered Clouds,170,2013-07-09 19:55:00
4:15 PM,80.8,64.9,58,30.02,10.0,SSE,4.6,-,N/A,,Clear,160,2013-07-09 20:15:00
4:35 PM,80.4,65.7,61,30.02,10.0,Calm,Calm,-,N/A,,Clear,0,2013-07-09 20:35:00
4:55 PM,81.9,64.9,56,30.02,10.0,Calm,Calm,-,N/A,,Clear,0,2013-07-09 20:55:00
5:15 PM,80.6,65.5,60,30.02,10.0,South,3.5,-,N/A,,Scattered Clouds,190,2013-07-09 21:15:00
5:35 PM,80.6,66.2,61,30.01,10.0,South,9.2,-,N/A,,Scattered Clouds,170,2013-07-09 21:35:00
5:55 PM,76.1,62.1,62,30.02,10.0,SSE,13.8,-,N/A,,Mostly Cloudy,150,2013-07-09 21:55:00
6:15 PM,73.0,63.5,72,30.03,10.0,SSW,10.4,-,N/A,,Mostly Cloudy,210,2013-07-09 22:15:00
6:35 PM,72.5,63.1,72,30.03,10.0,SSW,5.8,-,N/A,,Overcast,210,2013-07-09 22:35:00
6:55 PM,70.2,64.4,82,30.03,10.0,South,5.8,-,N/A,,Overcast,170,2013-07-09 22:55:00
7:15 PM,68.9,65.3,88,30.02,5.0,SSW,4.6,-,N/A,Rain,Light Rain,200,2013-07-09 23:15:00
7:35 PM,69.3,66.0,89,30.02,10.0,Calm,Calm,-,N/A,Rain,Light Rain,0,2013-07-09 23:35:00
7:55 PM,69.3,65.5,88,30.03,10.0,South,3.5,-,N/A,,Light Drizzle,180,2013-07-09 23:55:00
8:15 PM,69.6,65.7,87,30.03,10.0,SE,3.5,-,N/A,,Overcast,140,2013-07-10 00:15:00
8:35 PM,68.7,64.4,86,30.02,10.0,Calm,Calm,-,N/A,,Overcast,0,2013-07-10 00:35:00
8:55 PM,68.2,64.0,87,30.02,10.0,SSW,3.5,-,N/A,,Overcast,200,2013-07-10 00:55:00
9:15 PM,68.0,64.6,89,30.02,10.0,South,3.5,-,N/A,,Scattered Clouds,190,2013-07-10 01:15:00
9:35 PM,68.0,64.4,88,30.03,10.0,SSW,3.5,-,N/A,,Scattered Clouds,210,2013-07-10 01:35:00
9:55 PM,68.5,65.1,89,30.04,10.0,South,3.5,-,N/A,,Scattered Clouds,180,2013-07-10 01:55:00
10:15 PM,69.3,65.3,87,30.04,10.0,South,4.6,-,N/A,,Mostly Cloudy,170,2013-07-10 02:15:00
10:35 PM,68.9,65.3,88,30.04,10.0,SSE,6.9,-,N/A,,Overcast,150,2013-07-10 02:35:00
10:55 PM,69.1,64.6,86,30.03,10.0,SSE,6.9,-,N/A,,Overcast,150,2013-07-10 02:55:00
11:15 PM,68.4,63.9,85,30.03,10.0,SSE,9.2,-,N/A,,Mostly Cloudy,150,2013-07-10 03:15:00
11:35 PM,68.0,63.5,85,30.03,10.0,South,5.8,-,N/A,,Scattered Clouds,180,2013-07-10 03:35:00
11:55 PM,68.0,63.5,85,30.04,10.0,South,4.6,-,N/A,,Scattered Clouds,180,2013-07-10 03:55:00